RAVAN

Last updated on Thu Nov 21 2024 00:03:39 GMT+0000 (Coordinated Universal Time)

1 41849U 16067B 24324.99763953 .00024922 00000+0 11353-2 0 9995 2 41849 98.0599 152.5497 0010830 215.9371 144.1135 15.20617472439607
UTC large
Height (km)
Speed (km/s)
/
Latitude / Longitude
Inclination (degrees)
Orbital Period (minutes)
Azimuth
Elevation
Range (km)
Doppler Factor

Next 0 passes for location: London (51.5072 / 0.1276)

Sorry there are no passes over London.